Regional Weather Roundup
Issued by NWS

Home | Current Version | Previous Version | Graphics & Text | Print | Product List | Glossary Off
Versions: 1 2 3 4 5 6 7 8 9 10 11 12 13 14 15 16 17 18 19 20 21 22 23 24 25 26 27 28 29 30 31 32 33 34 35 36 37 38 39 40 41 42 43 44 45 46 47 48 49 50

000
ASUS43 KTOP 240159
RWRKS

WEATHER ROUNDUP FOR KANSAS
NATIONAL WEATHER SERVICE GOODLAND KS
900 PM CDT WED MAY 23 2018

NOTE:  "FAIR" INDICATES FEW OR NO CLOUDS BELOW 12,000 FEET WITH NO
SIGNIFICANT WEATHER AND/OR OBSTRUCTIONS TO VISIBILITY.

KSZ001>006-013>018-027>032-041>047-240300-
NORTHWEST KANSAS

CITY           SKY/WX    TMP DP  RH WIND       PRES   REMARKS
GOODLAND       MOCLDY    76  51  41 S22G32    29.93R
HAYS           MOCLDY    68  60  75 SE7       29.98R
HILL CITY      CLOUDY    74  60  61 S12G17    29.95R
RUSSELL        CLOUDY    73  61  65 S15       29.96R
$$

KSZ061>065-074>080-084>089-240300-
SOUTHWEST KANSAS

CITY           SKY/WX    TMP DP  RH WIND       PRES   REMARKS
DODGE CITY     CLOUDY    73  59  61 SE15      30.01R
GARDEN CITY    CLOUDY    73  58  59 SE17G26   29.96R
GREAT BEND     CLOUDY    70  61  73 S14       30.00R
$$

KSZ066>073-081>083-090>101-240300-
SOUTHEAST KANSAS

CITY           SKY/WX    TMP DP  RH WIND       PRES   REMARKS
CHANUTE        PTCLDY    72  69  90 SE6       30.06S
COFFEYVILLE    CLOUDY    72  69  90 SE5       30.05R
HUTCHINSON     CLOUDY    79  66  64 SE13      30.01R
MEDICINE LODGE   N/A     68  65  90 S17G29    30.05F
NEWTON         PTCLDY    76  64  66 SE13      30.04R
PARSONS        PTCLDY    72  71  97 CALM      30.07R
WICHITA INTL   MOCLDY    78  68  71 SE14      30.02R
WICHITA JABRA  PTCLDY    76  66  71 SE10      30.03R
WICHITA MCCONL PTCLDY    77  65  66 S10         N/A
WINFIELD       CLEAR     75  67  76 E12       30.04R
$$

KSZ007>012-019>026-033>040-048>060-102>105-240300-
NORTHEAST KANSAS

CITY           SKY/WX    TMP DP  RH WIND       PRES   REMARKS
CONCORDIA      MOCLDY    79  63  57 SE15      29.96F
EMPORIA        PTCLDY    73  64  73 SE9       30.04
LAWRENCE       MOCLDY    81  67  62 S10       30.04S
MANHATTAN      MOCLDY    81  68  64 S9        30.00S
OLATHE IND     CLOUDY    77  67  71 S12       30.08R
OLATHE EXE     MOCLDY    75  64  68 S10       30.08R
SALINA         PTCLDY    82  67  60 SE21G28   29.98S
TOPEKA BILLARD CLOUDY    79  68  69 SE7       30.03S
TOPEKA FORBES  CLOUDY    80  68  66 S7        30.05S
$$




USA.gov is the U.S. government's official web portal to all federal, state and local government web resources and services.